STARLINK-32511, 61727

Orbit data source: Space-Track

STARLINK-32511, 61727 is a payload satellite owned by SpaceX/Seattle (US) in LEO that was launched on Wed, 30 Oct 2024 UTC via an FALCON 9 launch vehicle from the Air Force Eastern Test Range (AFETR). Payload-class satellites include a variety of spacecraft equipped with specific instruments for various scientific and technological missions. These include communications satellites like Starlink; space stations such as the ISS; scientific satellites like the Hubble; Earth observation satellites from companies like Planet Labs, Umbra, and HawkEye 360; GPS; miniature CubeSats for education and research; and military/defense satellites.

Loading next visibility...
Identifier
61727, 2024-196W
Orbit
LEO
Country
Flag of USUS
Related business
Manufacturer
SpaceX/Seattle
Mission
Operational Commercial Communications
Bus & Motor
STARLINK V2M, Unknown motor
Mass
730 kg wet, ~700 kg dry
Launch date (UTC)
2024-10-30 (1 year ago)
Launch vehicle
FALCON 9
Launch site
Air Force Eastern Test Range (AFETR)
Object type
Payload
Rocket body
Debris
Shape & HBR
Box + 2 Pan, 17.7 m
Radar Cross Section
33.884 m², Large (>1 m²)

Expand to show TLE details & history
Last TLE update: 12 hours ago

TLE from 12 hours ago
0 STARLINK-32511
1 61727U 24196W   25352.61408443 -.00001212  00000-0 -28822-4 0  9996
2 61727  53.1593 117.9199 0000786  76.6410 283.4679 15.30199173 64742
Epoch: 2025-12-18T14:44Z
TLE epoch observation values (Epoch: 2025-12-18T14:44:16.894Z)
Latitude
0.00002°
Longitude
169.38245°
Altitude
475.992 km
Speed
7.629 km/s
True Right ascension
07h 51m 40s
True Declination
0° 00' 00"
Sunlit
Object was in full shadow at epoch
Visualization orbit readout
Latitude
Unknown
Longitude
Unknown
Altitude
Unknown
Speed
Unknown
Apparent Right ascension
Unknown
Apparent Declination
Unknown
Sunlit
N/A
Visualization observer readout
Local Sidereal Time
01:33:23
Azimuth
Unknown
Elevation
Unknown
Doppler factor
Unknown
Orbital elements
Apogee altitude
476.013 km
Perigee altitude
474.935 km
Semi-major axis
6,853.611 km
Eccentricity
0.00008
Inclination
53.1593°
RAAN
117.9199°
Arg. of periapsis
76.641°
True anomaly
283.45914°
Mean anomaly
283.4679°
Eccentric anomaly
283.46352°
Mean motion
3.82529 °/min
Orbital period
94.11 mins
BSTAR
-0.000028822
Loading maneuver chart data...
Computing Atmospheric mass density...
Loading historical data...
Loading historical data...
Loading historical data...
Loading historical data...
Loading historical data...
Loading historical data...
Loading historical data...

Documentation

Showing up to 5 results
|